• Join FlightAware (Why Join?)
  • Login
  • US Flag 
11:08PM EDT


 

Airport Tracker/Info


-or-


 

Live Flight TrackerFlight Track Log ✈ FLG3861 ✈ 03-Apr-2014 ✈ KDTW - KBGM

Flight Track Log - Related Links

Times and Time Zones

All times are in EDT time to prevent confusion due to time zone crossing. See the FLG3861 flight status page for this flight to view local times or setup timezone preferences in your user account.

Time Position Orientation Groundspeed Altitude Reporting Facility
EDT Latitude Longitude Course Direction KTS MPH feet Rate Location/Type
09:53PM 42.2236 -83.3556 29° Northeast 153 176 1,300  Level Cleveland Center
09:54PM 42.2683 -83.3222 29° Northeast 210 242 3,400 1,680 Climbing Cleveland Center
09:55PM 42.2744 -83.3169 33° Northeast 206 237 3,600 1,320 Climbing Cleveland Center
09:55PM 42.3117 -83.2747 40° Northeast 265 305 4,500 2,640 Climbing Cleveland Center
09:56PM 42.3186 -83.2278 79° East 250 288 6,300 2,460 Climbing Cleveland Center
09:56PM 42.3267 -83.1611 81° East 266 306 7,500 1,800 Climbing Cleveland Center
09:57PM 42.3308 -83.1297 80° East 258 297 8,200 1,800 Climbing Cleveland Center
09:57PM 42.3322 -83.0603 88° East 309 356 9,200 1,740 Climbing Cleveland Center
09:58PM 42.3339 -83.0133 87° East 307 353 10,000 1,260 Climbing Cleveland Center
09:59PM 42.3347 -82.8808 89° East 347 399 11,100 1,260 Climbing Cleveland Center
10:00PM 42.3361 -82.7386 89° East 376 433 12,700 1,500 Climbing Cleveland Center
10:01PM 42.3461 -82.5906 85° East 394 453 14,200 1,440 Climbing Cleveland Center
10:02PM 42.3686 -82.4417 78° East 401 461 15,700 1,440 Climbing Cleveland Center
10:03PM 42.3622 -82.2900 93° East 405 466 17,200 1,560 Climbing Cleveland Center
10:04PM 42.3553 -82.1142 93° East 405 466 18,900 1,320 Climbing Cleveland Center
10:05PM 42.3478 -81.9594 94° East 405 466 20,000 840 Climbing Cleveland Center
10:06PM 42.3414 -81.7983 93° East 419 482 20,700 660 Climbing Cleveland Center
10:07PM 42.3336 -81.6336 94° East 429 494 21,400 660 Climbing Cleveland Center
10:08PM 42.3258 -81.4650 94° East 439 505 22,100 660 Climbing Cleveland Center
10:09PM 42.3189 -81.2967 93° East 441 507 22,800 660 Climbing Cleveland Center
10:10PM 42.3097 -81.1253 94° East 447 514 23,500 600 Climbing Cleveland Center
10:11PM 42.3006 -80.9517 94° East 456 525 24,100 480 Climbing Cleveland Center
10:12PM 42.2908 -80.7764 94° East 458 527 24,600 480 Climbing Cleveland Center
10:13PM 42.2800 -80.5708 94° East 464 534 25,200 480 Climbing Cleveland Center
10:14PM 42.2706 -80.3942 94° East 465 535 25,700 480 Climbing Cleveland Center
10:15PM 42.2589 -80.2153 95° East 473 544 26,200 480 Climbing Cleveland Center
10:16PM 42.2478 -80.0358 95° East 476 548 26,700 360 Climbing Cleveland Center
10:17PM 42.2367 -79.8597 95° East 466 536 27,000 120 Climbing Cleveland Center
10:18PM 42.2253 -79.6778 95° East 485 558 27,000  Level Cleveland Center
10:19PM 42.2133 -79.4936 95° East 493 567 27,000  Level Cleveland Center
10:20PM 42.2006 -79.3078 95° East 499 574 27,000  Level Cleveland Center
10:21PM 42.1886 -79.1203 95° East 500 575 27,000  Level Cleveland Center
10:22PM 42.1931 -78.8936 88° East 506 582 27,000  Level Cleveland Center
10:23PM 42.1967 -78.7192 88° East 506 582 27,000  Level Cleveland Center
10:24PM 42.2000 -78.5308 89° East 505 581 27,000  Level Cleveland Center
10:25PM 42.2014 -78.3428 89° East 505 581 27,000 -60 Level Cleveland Center
10:27PM 42.2039 -78.1558 89° East 505 581 26,900 -720 Descending Cleveland Center
10:28PM 42.2067 -77.9272 89° East 510 587 25,600 -1,140 Descending Cleveland Center
10:29PM 42.2089 -77.7372 89° East 511 588 24,600 -960 Descending Cleveland Center
10:30PM 42.2100 -77.5506 89° East 510 587 23,700 -960 Descending Cleveland Center
10:31PM 42.2103 -77.3633 90° East 507 583 22,700 -1,020 Descending Cleveland Center
10:32PM 42.2117 -77.1853 89° East 487 560 21,700 -1,200 Descending Cleveland Center
10:33PM 42.2119 -77.0144 90° East 466 536 20,300 -2,220 Descending Cleveland Center
10:34PM 42.2119 -76.8133 90° East 454 522 17,200 -2,880 Descending Cleveland Center
10:35PM 42.2111 -76.6514 90° East 438 504 14,400 -2,700 Descending Cleveland Center
10:36PM 42.2117 -76.4981 90° East 415 478 11,700 -2,100 Descending Cleveland Center
10:37PM 42.2231 -76.3603 84° East 345 397 10,200 -1,860 Descending Cleveland Center
10:38PM 42.2444 -76.2575 74° East 296 341 8,000 -2,280 Descending Cleveland Center
10:39PM 42.2647 -76.1606 74° East 276 318 5,600 -1,980 Descending Cleveland Center
10:40PM 42.2808 -76.0703 76° East 259 298 4,000 -840 Descending Cleveland Center
10:41PM 42.2631 -76.0008 109° East 244 281 3,900 -120 Descending Cleveland Center